Temp
24 24 23 24 24 24 24 24 24 24 24 24 24 24 24 24 23 23 23 23 23 23 24 24 24 24 25 25 25 25 25 25 25 25 24 24 24 24 23 23 23 22 22 22 21 21 21 21 21 21 21 21 21 21 21 21 21 21 21 21 21 21 21 21 21 21 21 21 21 20 20 20 20 20 20 21 21 20 20 20 20 20 20 20 20
24 24 24 24 24 24 24 24 24 24 24 24 24 24 23 23 23 23 23 23 23 24 24 24 24 25 25 25 25 25 25 25 25 25 24 24 24 24 24 23 23 23 23 22 22 21 21 21 21 21 21 21 21 21 21 21 21 21 21 21 21 21 21 21 21 21 21 21 21 21 20 20 20 20 20 20 21 21 21 20 20 20 21 21 21
24 24 24 24 24 24 24 24 24 24 24 24 24 23 23 23 23 23 23 23 23 24 24 24 24 25 25 25 25 25 26 26 25 25 25 24 24 24 24 24 24 23 23 23 22 22 21 21 21 21 21 21 21 21 21 21 21 21 21 21 21 21 21 21 21 21 21 21 21 21 21 21 21 21 20 20 20 20 21 21 20 21 21 21 21
24 24 24 24 24 24 24 24 24 24 24 24 24 23 23 23 23 23 23 24 24 24 24 24 24 25 25 25 25 25 26 25 25 25 25 24 24 24 24 24 23 23 23 23 23 22 22 22 21 21 21 21 21 21 21 21 21 21 21 21 21 21 21 21 21 21 21 21 21 21 21 21 21 21 21 21 21 20 20 20 21 21 21 21 21
24 24 24 24 24 24 24 24 24 24 24 24 23 24 24 23 23 23 23 24 24 24 24 24 24 25 25 25 25 25 26 25 25 25 24 24 24 24 24 23 23 23 23 23 23 23 22 22 22 21 21 21 21 21 21 21 21 21 21 21 21 21 21 21 21 21 21 21 21 21 21 21 21 21 21 21 21 21 21 21 21 21 21 21 21
24 24 24 24 24 24 24 24 24 24 24 24 23 24 24 23 23 23 23 23 24 24 24 24 24 25 25 25 25 25 25 25 25 25 25 24 24 24 23 23 23 23 23 23 22 22 22 22 22 21 22 21 21 21 21 21 21 21 21 21 21 21 21 21 21 21 21 21 21 21 21 21 21 21 21 21 21 21 21 21 21 21 21 21 21
24 24 24 24 24 24 24 24 24 24 24 24 24 24 24 23 23 23 23 23 23 24 24 24 24 24 25 25 25 25 25 25 25 25 25 25 24 24 24 23 23 23 23 23 23 22 22 22 21 21 21 21 21 21 21 21 21 21 21 21 21 21 21 21 21 21 21 21 21 21 21 21 21 21 21 21 21 21 21 21 21 21 21 21 21
24 24 24 24 24 24 24 24 24 24 24 23 23 23 23 23 23 23 23 23 23 24 24 24 24 24 25 25 25 25 25 25 25 25 25 25 24 24 24 23 23 23 23 23 23 22 22 22 21 21 21 21 21 21 21 21 21 21 21 20 21 21 21 21 21 21 21 21 21 21 21 21 21 21 21 21 21 21 21 21 21 21 21 21 21
24 24 24 24 24 24 24 24 24 24 23 23 23 23 23 23 23 23 23 23 23 23 24 24 24 24 25 25 25 25 25 25 25 25 25 25 24 24 24 23 23 23 23 22 22 22 22 22 21 21 21 21 21 21 21 21 21 21 20 20 20 20 21 21 21 21 21 21 21 21 21 21 21 21 21 21 21 21 21 21 21 21 21 21 21
24 24 24 24 24 23 24 23 23 23 23 23 23 23 23 23 23 23 23 23 23 23 23 24 24 24 25 25 25 25 25 25 25 25 25 25 25 24 24 24 23 23 23 23 22 22 22 22 21 21 21 21 21 21 21 21 21 21 21 21 20 20 20 20 20 21 21 21 21 21 21 21 21 21 21 21 21 21 21 21 21 21 21 21 21
24 24 24 24 23 23 23 23 23 23 23 23 23 23 23 23 23 23 23 23 23 23 23 23 24 24 24 24 24 25 25 25 25 25 25 25 25 24 24 24 23 23 23 23 22 22 22 22 21 21 21 21 21 21 21 21 21 21 21 21 21 20 20 20 20 20 20 21 21 21 21 21 21 21 21 21 21 21 21 20 20 21 21 21 21
25 24 24 24 23 23 23 23 23 23 23 23 23 23 23 23 23 23 23 23 23 23 23 23 24 24 24 24 24 25 25 25 25 25 25 25 25 24 24 23 23 23 23 23 22 22 22 21 21 21 21 21 21 21 21 21 21 21 21 21 20 20 20 20 20 20 20 21 21 21 21 21 21 21 21 21 21 21 21 20 20 20 20 20 20
25 24 24 24 23 23 23 23 23 23 23 23 23 23 23 23 23 23 23 23 23 23 23 23 24 24 24 24 24 25 25 25 25 25 25 25 25 25 24 24 23 22 22 22 22 22 22 21 21 21 21 21 21 21 21 21 20 20 20 20 20 20 20 20 20 20 20 20 20 20 20 21 21 21 21 21 21 20 20 20 20 20 20 20 20
25 24 24 24 23 23 23 23 23 23 23 23 23 23 23 23 23 23 23 23 23 23 23 24 23 23 23 24 24 24 24 24 25 25 25 25 25 25 25 25 24 23 22 22 22 22 22 21 21 21 21 21 21 21 21 21 20 20 20 20 20 20 20 20 20 20 20 20 20 20 20 20 20 20 20 20 20 20 20 20 20 20 20 20 20
24 24 24 24 24 23 23 23 23 22 22 23 23 23 23 23 23 23 23 23 23 23 23 24 24 23 23 23 23 23 24 24 24 25 25 25 25 25 25 25 24 23 22 22 22 22 22 22 21 21 21 21 21 21 21 21 20 21 20 20 20 20 20 20 20 20 20 20 20 20 20 20 20 20 20 20 20 20 20 20 20 20 20 20 20
24 24 24 24 24 23 23 23 23 22 23 23 23 23 23 23 23 23 23 23 23 23 23 23 24 23 23 23 22 23 23 23 24 24 25 25 25 25 25 25 24 24 23 22 22 22 22 22 22 21 21 21 21 21 21 21 21 21 21 21 21 20 20 20 20 20 19 20 20 20 20 20 20 20 20 20 20 20 20 20 20 20 20 20 20
24 24 24 24 24 23 23 23 23 22 23 23 23 23 23 23 23 23 23 23 23 23 23 23 24 24 23 23 23 22 22 23 23 24 25 25 25 25 25 25 24 24 23 23 22 23 22 22 22 22 22 21 21 21 21 21 21 21 21 21 21 21 21 20 20 20 20 20 20 20 20 20 20 20 20 20 20 20 20 20 19 19 19 19 20
24 24 24 24 24 23 23 23 23 23 23 23 23 23 23 23 23 23 23 23 23 23 23 23 23 23 23 23 23 23 23 23 23 23 24 25 24 24 24 25 24 24 24 23 23 23 22 22 22 22 22 22 21 21 21 21 21 21 21 21 21 21 21 21 21 21 21 20 20 20 20 20 20 20 20 20 20 20 19 19 19 19 19 19 19
24 24 24 23 23 23 23 23 23 23 23 23 23 23 23 23 23 23 23 23 22 22 23 23 23 23 23 23 23 23 23 23 23 23 23 24 25 24 24 24 24 24 23 23 23 23 23 22 22 22 22 22 21 21 21 21 21 21 21 21 21 21 21 21 21 21 21 21 21 21 20 20 20 20 20 20 20 20 19 19 19 19 19 19 19
24 24 23 23 23 23 23 23 23 23 23 23 23 23 23 23 23 23 23 23 22 22 23 23 23 23 23 23 23 23 23 23 23 23 23 23 24 24 24 24 24 24 23 23 23 23 23 23 22 22 22 22 22 22 21 21 21 21 21 21 21 21 21 21 21 21 21 21 21 21 21 21 21 21 21 20 20 20 20 20 19 19 19 19 19
24 24 24 23 23 23 23 23 23 23 24 24 23 23 23 23 23 23 23 23 22 22 23 23 23 23 23 23 23 23 23 23 23 24 23 23 23 23 24 24 24 24 23 23 23 23 23 23 23 22 22 22 22 22 22 21 21 21 21 21 21 21 21 21 21 21 21 21 21 21 21 21 21 21 21 21 21 20 20 20 20 20 20 20 20
24 24 24 23 23 23 23 23 23 23 24 24 23 23 23 23 23 23 23 23 22 22 23 23 22 23 23 23 23 23 23 23 23 23 23 23 23 23 23 23 23 24 24 23 23 23 23 23 23 22 22 22 22 22 22 21 21 21 21 21 21 21 20 20 20 21 21 20 20 20 20 20 20 21 21 20 20 20 20 20 20 20 20 20 20
24 24 23 23 23 23 23 23 23 23 24 24 23 23 23 23 23 23 22 22 22 22 22 22 22 23 23 23 23 23 23 23 23 23 23 22 22 22 22 23 23 23 24 23 23 23 23 23 23 22 22 22 22 22 22 21 21 21 21 21 21 21 21 20 20 20 20 20 20 20 20 20 20 20 20 20 20 20 20 20 20 20 20 20 20
24 24 24 23 23 23 23 23 23 24 24 24 24 23 23 23 23 23 22 22 22 23 22 22 22 23 23 23 23 23 23 23 23 24 24 23 23 22 22 23 23 23 23 23 23 23 23 23 23 23 23 23 22 22 22 22 21 21 21 21 21 21 20 20 20 20 20 20 20 20 20 20 20 20 20 20 20 20 20 20 20 20 20 20 20
24 24 24 23 23 23 23 23 24 24 24 24 24 24 23 23 23 23 22 22 22 23 22 22 23 23 23 23 23 23 23 23 23 24 24 23 23 23 22 22 22 22 22 23 23 23 23 23 23 23 23 23 23 22 22 22 22 22 21 21 21 21 20 20 20 20 20 20 20 20 20 20 20 19 19 20 20 20 20 20 20 20 20 20 20
24 24 24 23 23 23 23 23 24 24 24 24 24 24 24 23 23 23 23 22 22 22 22 22 23 23 23 23 23 23 23 23 23 23 23 23 23 23 22 22 22 22 22 22 22 22 23 23 23 23 23 23 23 22 22 22 22 22 22 22 21 21 20 20 20 20 20 20 20 20 20 19 19 19 19 19 19 19 19 20 20 20 20 20 20
24 24 24 23 23 24 23 23 24 24 24 24 24 23 23 23 23 23 23 22 22 22 22 22 22 23 23 23 23 23 23 23 23 23 23 23 23 23 22 21 21 21 21 21 22 22 22 22 23 23 23 23 23 22 22 22 22 22 22 21 21 21 20 20 20 20 20 20 20 19 19 19 19 19 19 19 19 19 19 19 19 19 20 20 20
24 24 24 23 23 24 23 24 24 24 23 24 23 23 23 23 22 23 22 22 22 22 22 22 22 23 23 23 23 23 23 23 23 22 22 22 22 22 22 21 21 20 20 20 21 21 22 22 22 23 23 23 22 22 22 22 22 22 21 21 21 21 20 20 20 20 20 20 19 19 19 19 19 19 19 19 19 19 19 19 19 19 19 19 19
24 24 24 24 24 24 24 24 24 24 23 23 23 23 23 23 22 22 22 22 22 22 22 22 22 22 22 23 23 23 23 23 22 22 22 22 22 22 22 21 21 21 20 20 20 20 21 22 21 22 22 22 22 22 22 22 22 22 21 21 21 21 20 20 20 20 20 19 19 19 19 19 19 19 19 19 19 19 19 19 19 19 19 19 19
25 25 24 24 24 24 24 24 24 24 23 23 23 23 23 23 22 22 22 22 22 22 22 22 22 22 22 22 22 22 22 22 22 22 22 22 22 22 22 21 21 21 20 20 20 20 21 21 21 21 22 22 22 22 22 21 22 22 21 21 21 21 21 20 20 20 20 19 19 19 19 19 19 19 19 19 19 19 19 19 19 19 19 19 19
25 25 25 24 24 24 24 24 24 23 23 23 23 22 22 22 22 22 22 22 22 22 22 22 22 22 22 22 22 22 22 22 22 22 22 22 22 22 21 21 21 21 20 20 19 20 21 21 21 21 21 21 21 21 21 21 21 21 21 21 21 21 21 21 21 20 20 20 19 19 19 19 19 19 19 19 19 19 19 19 19 19 19 19 19
25 25 25 24 24 24 24 24 24 23 23 23 23 22 22 22 22 22 22 22 22 22 22 22 22 22 22 22 22 22 22 22 22 22 22 22 22 21 21 21 21 21 21 20 19 19 20 21 21 21 21 21 21 21 21 21 21 21 21 21 21 21 21 21 21 21 20 20 20 20 19 19 19 19 19 19 19 19 19 19 19 19 19 19 19
25 25 25 25 24 24 24 24 24 23 23 23 23 22 22 22 22 22 22 22 22 22 22 22 22 22 22 22 22 22 22 22 22 22 22 22 21 21 21 21 21 21 21 20 20 19 20 21 20 21 21 20 20 21 21 21 21 21 21 21 21 21 21 21 20 20 20 20 20 20 20 19 19 19 19 19 19 19 19 19 19 19 19 19 19
25 25 25 25 25 24 24 24 24 23 23 23 23 22 22 22 22 22 22 22 22 22 22 22 22 22 22 22 22 22 22 22 22 22 21 22 21 21 21 21 21 21 21 21 20 20 20 20 21 21 21 20 20 21 20 20 20 20 20 20 20 20 20 20 20 20 20 20 20 20 20 19 19 19 19 19 19 19 19 19 19 19 19 19 19
25 25 25 25 25 25 24 24 24 24 23 23 23 22 22 22 22 22 22 22 22 22 22 22 22 22 22 22 22 22 22 22 22 22 21 21 21 21 21 21 21 21 21 21 20 20 20 20 20 21 21 20 20 21 21 20 20 20 20 20 20 20 20 20 20 20 20 20 20 20 19 19 19 19 19 19 19 19 19 19 19 19 19 19 19
25 25 25 25 25 25 24 24 24 23 23 23 23 22 22 22 22 22 22 22 22 22 22 22 22 22 22 22 22 22 22 22 22 22 22 22 22 21 21 21 21 21 21 21 21 21 20 20 20 20 20 20 20 20 20 20 20 20 20 20 20 20 20 20 20 20 20 20 20 19 19 19 19 19 19 19 19 19 19 19 19 19 19 19 19
25 25 25 25 25 24 24 24 24 23 23 23 23 22 22 22 22 22 22 22 22 22 22 22 22 22 22 22 22 22 22 22 22 22 22 22 22 21 21 21 21 21 21 21 21 20 20 20 20 20 20 20 20 20 20 20 20 20 20 20 20 20 20 20 20 19 19 19 19 19 19 19 19 19 19 19 19 19 19 19 19 19 19 19 19
25 25 25 25 24 24 24 24 24 23 23 23 23 22 22 22 22 22 22 22 22 22 21 22 22 22 22 22 22 22 22 22 22 22 22 22 22 22 21 21 21 21 21 21 20 20 20 20 20 20 20 20 20 20 20 20 19 20 20 20 20 19 19 19 19 20 19 19 19 19 19 19 19 19 19 19 19 19 19 19 19 19 19 19 19
25 25 25 25 25 24 24 24 24 23 23 23 23 22 22 22 22 22 22 22 22 22 21 22 22 22 22 22 22 22 21 22 22 22 22 22 22 22 21 21 21 21 21 20 20 20 20 20 19 19 19 20 19 19 19 19 19 19 19 19 19 19 19 19 19 19 19 19 19 19 19 19 19 19 19 19 19 19 19 19 19 19 19 19 19
26 25 25 25 24 24 24 24 23 23 23 23 22 22 22 22 22 22 22 21 21 21 21 21 22 22 22 22 22 22 22 22 22 22 22 22 22 21 21 21 21 21 21 21 20 20 19 19 19 19 19 19 19 19 19 19 18 19 19 19 19 19 19 19 19 18 18 18 18 18 18 18 18 18 19 19 19 19 19 19 19 19 19 19 19
26 26 25 25 24 24 24 24 23 23 23 23 22 22 22 22 22 22 21 21 21 21 21 21 21 21 21 22 22 21 21 22 22 22 22 22 22 21 21 21 21 21 21 21 20 20 19 18 18 18 18 18 18 18 18 18 18 19 19 19 19 18 18 18 18 18 18 18 18 18 18 18 18 18 18 18 18 18 18 18 18 18 18 18 18
26 26 25 25 24 24 24 23 23 23 23 23 22 22 22 22 22 22 21 21 21 21 21 21 21 21 21 21 22 21 21 21 22 22 22 22 22 21 21 21 21 21 20 20 20 19 19 18 18 18 18 17 18 18 18 18 19 19 19 18 18 18 18 17 17 18 18 17 17 17 17 17 17 17 17 17 17 17 17 18 18 18 18 18 18
26 26 26 25 25 24 24 23 23 23 23 22 22 22 22 22 22 22 21 21 21 21 21 21 21 21 21 21 22 21 21 21 21 21 21 21 21 21 21 21 21 21 20 20 19 19 19 18 18 18 17 17 18 18 18 18 18 18 18 18 17 17 17 16 16 17 17 17 17 16 16 17 17 16 16 17 17 17 17 18 18 18 18 18 18
26 26 26 25 25 24 24 23 23 23 23 22 22 22 22 22 22 22 21 21 21 21 21 21 21 21 21 21 21 21 21 21 21 21 21 21 21 21 21 21 21 20 20 20 19 19 19 18 18 18 18 17 17 18 18 18 18 18 17 17 17 16 16 16 15 16 17 17 17 16 16 16 16 15 16 16 17 17 17 18 18 18 18 18 18
26 26 26 26 25 25 24 23 23 23 23 22 22 22 22 22 22 21 21 21 21 21 21 21 21 21 21 21 21 21 21 21 21 21 21 21 21 21 21 21 20 20 20 20 19 19 19 18 18 18 18 18 17 17 18 17 17 17 17 17 16 16 16 16 16 16 17 17 16 15 15 16 16 15 15 16 17 17 18 18 18 18 18 18 18
26 26 26 26 25 25 24 24 23 23 23 22 22 22 22 22 22 21 21 21 21 21 21 21 21 21 21 21 21 21 21 21 21 21 21 20 21 20 20 20 20 20 20 19 19 19 19 18 18 18 18 18 18 18 18 17 17 17 16 16 16 16 16 16 16 16 17 17 16 15 14 15 16 16 16 17 17 17 17 18 18 17 17 17 17
26 26 26 25 25 24 24 24 23 23 22 22 22 22 22 21 21 21 21 21 21 21 21 21 21 21 21 21 21 21 21 21 21 21 21 20 20 20 20 20 19 19 19 19 19 19 18 18 18 18 18 18 18 18 18 17 17 16 16 16 16 16 16 16 16 16 17 17 17 15 14 15 16 16 16 17 17 17 17 17 17 17 17 17 17
26 26 25 25 24 24 24 23 23 22 22 22 22 22 21 21 21 21 21 21 21 21 21 21 21 21 21 21 20 20 20 20 21 21 20 20 20 20 19 19 19 19 19 19 18 18 18 18 18 18 18 17 17 17 17 17 17 17 17 16 16 16 16 15 15 15 16 17 17 15 15 15 16 16 16 16 16 16 17 17 17 17 17 17 17
25 25 25 25 24 24 23 23 23 22 22 22 22 22 22 22 21 21 21 21 21 21 21 21 21 21 21 20 20 20 20 20 20 20 20 20 19 19 19 19 19 19 19 18 18 18 18 18 18 17 17 17 17 17 17 17 17 17 16 16 16 16 15 14 14 15 15 16 16 16 15 15 16 16 15 15 15 15 16 16 16 16 16 16 16
25 24 24 24 24 24 23 23 23 23 22 22 22 22 22 22 22 22 22 21 20 20 20 20 20 20 20 20 20 20 20 20 20 20 20 19 19 19 19 19 18 18 18 18 17 18 18 18 18 17 17 17 17 17 17 17 17 17 16 16 16 16 15 14 14 14 15 15 15 15 15 15 15 15 15 15 15 15 15 15 15 15 15 15 15
24 24 24 24 23 23 23 23 23 23 23 22 22 22 22 22 22 22 22 21 20 20 20 20 20 20 20 20 20 20 20 20 20 20 19 19 19 19 18 18 17 17 17 17 17 17 17 17 17 17 17 17 17 17 17 17 17 17 16 16 16 16 15 14 14 14 14 14 15 15 15 15 15 15 14 14 13 14 14 15 15 15 15 15 15
Height
849 849 850 850 851 851 851 852 852 852 852 852 853 853 854 854 855 856 856 857 857 858 858 858 857 857 857 856 856 856 856 855 855 855 855 855 855 856 856 856 856 857 858 859 859 860 860 859 859 860 862 863 864 864 864 865 866 867 868 869 870 871 872 873 874 875 876 877 878 879 880 880 881 881 882 882 883 883 883 883 884 884 884 884 884
848 848 849 849 850 850 850 851 851 851 851 852 852 853 853 854 854 855 855 856 857 857 857 857 857 857 857 856 856 855 855 855 855 855 855 855 855 855 856 856 856 856 857 858 858 859 859 858 859 860 862 863 863 863 864 865 865 866 867 868 869 870 871 872 873 874 875 876 877 877 878 879 880 880 881 881 882 882 883 883 883 883 884 884 884
847 847 848 849 849 850 850 850 850 850 851 851 852 852 853 854 853 853 854 854 855 856 856 856 856 856 856 856 855 855 855 855 855 854 853 854 855 855 856 856 856 856 856 857 857 857 858 858 859 861 862 862 863 864 865 865 866 866 866 867 868 869 869 870 871 872 873 874 875 876 876 877 878 879 879 880 881 881 882 882 882 883 883 883 883
846 846 847 848 848 848 849 849 849 849 850 850 851 851 852 853 853 853 853 854 854 854 855 855 855 855 855 855 855 855 855 854 854 853 852 854 855 856 855 856 856 856 856 856 856 856 857 858 860 861 861 862 863 864 865 865 866 866 867 867 867 868 869 869 870 870 871 872 873 874 874 875 876 877 878 878 879 880 880 881 881 881 882 882 882
845 845 846 847 847 847 847 848 849 849 849 850 850 851 851 852 852 853 853 854 853 853 854 855 855 854 854 854 854 854 854 854 854 853 853 854 855 855 855 856 857 857 857 856 856 856 856 858 859 860 860 861 862 863 864 865 866 866 867 867 867 868 869 869 869 869 870 870 871 872 873 873 874 875 876 877 877 878 879 879 880 880 880 881 881
844 845 845 845 846 846 846 847 848 848 849 850 850 850 850 851 852 852 853 853 853 852 853 854 854 854 853 853 853 854 854 853 853 853 853 853 854 854 855 856 856 856 857 856 857 856 857 857 858 859 859 860 861 862 863 864 865 866 866 867 867 867 868 869 869 869 869 869 870 870 871 872 873 873 874 875 875 876 877 877 878 878 879 879 879
843 843 843 844 845 845 846 846 847 847 848 849 849 849 849 850 851 852 852 852 852 852 852 853 853 853 853 853 853 853 853 853 853 853 854 853 853 853 854 854 855 855 856 856 856 856 857 857 858 858 859 860 861 862 863 864 864 865 865 866 866 866 867 867 868 868 868 869 869 869 869 870 871 872 872 873 873 874 875 875 876 876 877 877 878
841 842 842 842 843 844 845 845 846 846 847 847 847 848 849 850 850 851 851 851 852 851 851 851 851 852 852 852 853 853 853 853 853 853 853 853 854 853 853 854 854 854 855 855 856 856 857 857 857 858 859 860 860 861 862 862 863 863 864 865 865 866 866 866 866 867 867 867 868 868 868 869 870 870 871 871 872 872 872 873 873 874 875 875 876
839 840 840 841 841 842 843 844 845 845 846 846 846 847 848 849 849 849 850 850 851 850 850 850 850 850 851 851 852 852 852 853 853 853 853 853 853 854 854 854 854 854 854 854 855 856 856 856 857 858 858 859 860 861 861 861 861 862 863 864 864 865 865 865 865 865 866 866 866 867 867 868 868 869 869 870 870 870 871 871 871 872 873 874 874
838 838 839 840 841 842 842 843 844 844 845 846 846 846 847 847 848 848 849 849 850 849 849 849 849 849 850 851 851 852 852 852 852 853 853 853 853 854 854 854 854 854 854 854 855 856 856 856 857 857 858 858 859 860 860 861 861 861 862 862 863 863 864 864 864 864 865 865 865 865 865 866 867 867 868 868 869 869 869 869 870 871 871 872 872
837 838 838 839 840 841 842 842 843 843 844 845 845 845 846 846 847 847 848 848 849 849 848 848 848 849 850 850 851 851 851 851 852 852 852 853 853 854 854 855 855 855 855 855 855 856 856 856 856 857 857 858 859 859 860 860 860 860 861 861 862 862 862 863 863 863 863 864 863 863 864 864 865 865 866 866 867 867 867 868 869 870 870 871 871
835 837 838 838 839 841 841 841 842 842 843 843 844 844 844 845 846 847 847 848 848 848 848 848 848 848 849 850 850 850 851 851 851 852 852 853 853 854 854 855 856 856 856 856 856 856 856 857 856 856 857 857 858 858 859 859 860 860 860 861 861 861 862 862 862 862 862 863 863 862 863 863 863 863 864 864 864 865 866 866 867 868 868 868 869
834 835 837 837 838 839 840 840 840 840 842 842 843 843 844 845 845 846 847 847 848 847 848 848 847 848 848 849 849 849 850 850 851 851 853 853 853 853 854 854 855 855 856 856 856 856 857 857 857 857 857 857 858 858 859 859 859 860 860 860 860 861 861 861 861 861 861 862 862 862 862 862 862 862 862 862 862 863 863 864 865 866 866 866 867
833 834 835 836 837 837 838 839 839 840 841 842 842 843 843 844 845 846 847 847 847 847 847 847 847 848 848 848 849 849 849 849 850 851 852 853 852 852 853 854 854 854 855 856 856 856 856 857 857 857 857 858 858 858 858 859 859 859 859 860 860 860 860 860 860 860 860 860 860 860 860 860 861 860 860 860 861 861 861 862 862 863 864 864 865
832 833 834 835 835 836 837 838 839 840 841 842 842 842 843 844 845 846 846 847 847 847 847 847 847 848 848 850 850 850 850 849 849 850 851 851 851 852 853 853 854 854 854 854 855 855 856 856 857 857 858 858 858 858 858 858 859 859 859 859 859 859 859 859 859 859 859 859 859 859 859 859 859 859 859 859 859 859 860 860 860 861 861 862 863
830 831 832 833 834 835 836 837 839 840 841 841 841 842 843 844 845 846 846 847 847 847 847 847 847 848 849 851 850 851 854 851 849 850 850 850 850 851 852 852 853 854 854 854 855 855 855 856 856 856 857 858 858 858 858 858 858 859 859 859 858 858 859 859 859 859 858 858 858 858 858 858 858 858 858 858 858 858 858 859 859 860 860 860 860
829 830 830 831 833 834 836 837 838 839 839 839 840 841 842 843 844 845 846 846 846 847 847 847 847 847 848 849 851 854 854 850 849 850 850 850 850 850 851 851 852 853 853 853 854 855 855 855 855 856 856 857 858 858 858 858 858 858 858 858 858 858 858 858 858 858 857 857 857 857 857 857 857 857 856 856 856 856 857 857 858 858 858 858 858
827 828 829 830 832 833 835 836 837 837 837 838 839 840 841 842 843 844 844 845 845 846 846 846 847 847 847 847 849 851 850 849 850 851 849 849 850 850 850 850 851 852 852 853 853 854 854 854 854 855 855 855 856 857 857 857 857 858 857 857 857 857 857 857 857 857 856 856 856 856 856 856 856 856 855 855 855 855 855 856 856 856 856 856 856
825 826 828 829 831 832 833 835 835 835 836 836 837 839 840 841 842 842 843 844 845 845 845 845 846 846 847 847 847 848 848 848 849 851 851 850 849 849 850 850 850 851 852 852 853 853 853 853 853 854 854 854 855 855 856 856 856 856 856 857 856 856 856 856 856 856 855 855 855 855 855 855 854 854 854 854 854 854 854 855 855 854 854 854 854
824 825 826 828 829 831 832 833 834 834 834 835 837 838 839 840 841 841 842 843 843 844 844 844 845 845 846 847 847 847 847 848 848 849 851 852 850 849 849 850 850 850 851 852 853 853 853 853 853 853 854 854 854 854 854 854 855 855 855 855 855 855 855 855 854 854 854 854 855 854 854 854 854 854 853 853 853 853 853 853 853 853 853 853 853
822 823 825 826 828 829 830 831 832 833 834 835 836 837 838 839 840 840 841 842 843 843 844 844 844 845 845 846 846 847 847 848 848 847 848 851 852 850 849 850 850 851 851 851 852 852 852 852 852 852 852 853 854 854 854 854 854 854 854 854 854 854 854 853 853 853 853 853 853 853 853 853 853 853 853 853 852 852 852 852 852 852 852 852 852
821 822 823 825 826 827 828 829 830 831 833 834 835 836 837 838 839 839 840 841 841 842 843 843 843 844 844 845 845 846 847 847 847 847 847 849 850 850 850 850 850 851 851 851 851 851 851 851 851 852 852 852 852 853 853 853 853 853 853 853 853 853 853 852 852 852 852 852 852 852 852 852 852 852 852 852 851 851 851 851 851 851 850 850 850
819 820 822 823 824 826 827 828 829 830 832 833 834 835 836 837 838 838 839 840 841 842 842 843 843 844 844 844 845 845 846 846 847 847 847 847 849 850 850 850 850 850 850 851 851 851 851 851 851 851 851 851 851 851 851 851 851 851 851 852 852 852 851 851 851 850 850 850 850 850 850 850 850 851 851 850 850 850 850 850 850 849 849 848 848
817 818 820 821 822 824 825 827 828 829 830 832 833 834 835 835 837 838 839 840 841 842 842 843 843 843 843 844 845 845 845 846 846 846 846 847 847 848 848 849 849 850 850 851 850 850 850 850 850 850 850 850 850 850 850 849 849 850 850 850 850 850 850 850 850 849 849 848 848 848 849 849 849 849 849 849 849 849 849 849 848 848 847 847 847
814 816 817 818 820 822 823 825 826 828 829 831 832 833 833 834 835 836 838 839 840 841 842 843 843 843 843 843 844 845 845 845 846 846 846 846 846 847 847 848 848 849 850 850 850 850 849 849 849 849 849 849 848 849 848 848 848 848 848 848 849 849 849 849 848 848 847 847 847 847 847 847 847 847 847 847 848 848 847 847 847 846 846 845 845
811 812 814 816 818 820 821 823 824 826 828 829 830 831 832 833 834 835 837 838 839 840 840 841 842 843 843 843 843 843 844 845 845 845 845 846 846 846 846 847 848 848 848 849 849 848 848 848 848 847 847 847 847 848 848 848 848 848 848 848 848 847 847 847 847 846 846 845 845 846 846 846 846 846 846 846 846 846 846 845 845 845 844 844 843
808 810 812 814 816 818 820 821 823 824 826 827 828 829 830 831 833 834 835 837 838 839 839 840 841 842 842 843 843 843 844 843 844 844 845 845 845 845 846 847 848 849 848 848 848 847 847 847 847 846 846 846 847 847 847 847 847 847 847 847 846 846 846 846 845 845 844 844 844 844 844 844 844 844 844 844 844 844 843 843 843 843 843 842 842
806 808 809 811 814 816 818 819 821 822 824 825 826 827 829 830 832 833 834 835 837 838 839 839 840 841 841 842 842 843 843 843 843 844 844 844 845 845 845 846 848 850 850 849 847 847 847 846 846 846 845 845 846 846 847 847 846 846 846 845 844 844 844 844 844 843 843 842 842 842 842 842 842 842 842 842 842 841 841 841 841 841 841 840 840
804 805 807 809 812 814 815 817 819 820 821 822 824 825 827 828 830 831 833 834 835 836 837 838 839 840 840 841 841 842 843 843 843 843 843 843 844 844 845 845 846 848 849 850 848 846 846 846 846 846 845 845 846 846 846 845 845 844 844 843 842 842 842 841 841 841 840 840 839 839 840 840 840 840 840 840 840 839 839 839 838 838 838 838 838
801 803 805 807 809 811 813 815 816 818 819 820 821 823 825 827 828 829 831 832 833 834 835 837 838 839 839 840 840 840 841 842 842 842 842 842 842 843 844 844 844 845 846 848 848 846 845 846 846 846 846 845 846 845 845 844 844 843 842 841 841 840 840 839 839 838 838 837 836 836 837 837 837 838 837 837 837 837 836 836 836 835 835 835 835
798 800 802 804 806 808 810 812 813 815 816 818 819 821 823 825 826 827 829 830 831 832 834 835 836 837 838 838 838 838 839 840 840 841 841 841 841 842 842 843 843 843 843 845 846 845 844 844 844 845 845 845 845 844 843 843 842 841 840 840 839 838 838 837 836 836 835 834 833 833 833 833 834 834 834 834 834 834 833 833 833 832 832 832 831
795 797 799 801 803 805 807 809 810 812 814 815 817 818 820 822 824 825 827 828 829 830 832 833 834 835 836 836 836 836 837 838 839 840 840 840 840 840 841 842 842 843 843 843 844 843 843 843 843 843 843 843 843 842 841 841 840 840 838 838 837 837 836 835 834 833 832 831 831 830 830 830 830 830 831 831 831 831 830 830 830 830 829 829 829
792 794 796 798 799 802 804 805 807 808 810 812 814 816 817 819 821 823 825 826 827 828 829 831 831 833 834 834 834 835 835 836 837 838 839 839 840 840 840 841 841 842 842 842 842 842 842 842 841 841 841 840 840 839 839 839 838 838 836 836 835 835 834 833 832 831 830 830 829 828 827 827 827 827 827 827 827 827 827 827 827 827 826 826 826
788 790 793 795 797 799 801 802 804 805 807 809 811 813 815 817 818 821 822 823 825 826 827 828 829 830 831 832 833 833 834 835 835 836 837 837 838 838 839 839 839 840 840 841 841 840 840 839 839 838 838 838 837 836 836 836 835 834 834 833 833 832 832 831 830 829 828 828 827 826 826 825 825 824 824 823 823 823 823 823 823 823 823 822 822
785 787 789 792 794 796 798 799 801 802 804 806 808 810 812 813 815 817 819 820 822 823 824 825 826 827 829 830 831 832 832 833 833 834 834 835 836 836 837 837 837 838 839 839 839 838 838 837 837 836 835 835 834 833 833 832 831 831 830 830 830 830 829 829 828 827 826 826 825 824 824 823 823 822 821 821 820 820 819 819 819 819 819 819 819
782 784 786 788 790 792 794 796 797 799 801 802 804 807 809 810 812 814 816 817 819 820 821 822 824 825 826 827 828 829 830 831 831 831 832 833 833 834 834 834 835 835 836 836 837 837 836 835 834 833 833 832 831 830 830 829 828 828 827 827 827 826 826 826 825 825 824 823 823 822 822 821 821 820 819 818 818 817 817 816 816 815 815 815 814
778 780 783 785 787 788 789 791 794 795 797 799 801 803 805 808 809 811 813 815 816 817 819 820 822 823 824 825 826 827 828 828 828 829 829 830 831 832 832 832 832 833 833 834 834 834 834 833 831 831 831 830 829 828 828 827 826 825 824 824 824 823 823 823 823 822 821 821 820 820 819 819 818 817 816 815 814 814 814 813 813 812 812 811 811
774 776 778 780 782 784 785 788 790 792 794 796 797 800 803 805 807 809 811 813 814 815 817 818 819 821 822 823 824 825 826 826 827 827 828 828 829 830 830 830 830 831 831 831 831 831 831 830 829 828 828 828 827 826 825 825 825 823 822 821 821 821 821 820 820 819 819 818 817 817 817 816 815 814 813 812 811 811 810 809 809 809 808 808 807
770 772 774 776 777 779 782 784 786 788 790 793 795 797 800 802 804 806 808 810 812 813 815 815 817 818 820 821 822 823 824 824 825 826 827 827 827 828 828 828 829 829 828 828 828 828 828 827 827 827 826 826 825 823 822 823 822 821 820 818 817 817 818 818 817 817 816 815 815 814 814 813 812 811 809 809 808 807 807 806 806 805 805 804 803
765 767 769 771 774 776 779 781 783 786 788 790 792 794 796 799 801 803 805 808 809 811 813 814 815 816 817 818 819 820 822 823 824 825 825 825 825 825 826 826 826 826 826 826 826 826 825 825 825 824 824 823 822 821 821 821 820 819 818 817 815 815 815 815 814 814 813 812 812 811 811 810 808 807 806 805 805 804 803 803 802 802 801 800 799
761 763 765 768 771 773 776 778 781 783 785 786 788 790 793 796 798 801 803 805 807 809 811 812 813 814 815 816 817 818 820 821 822 822 823 823 822 823 824 824 824 824 824 824 824 823 823 823 823 822 822 821 820 819 819 819 818 817 816 816 814 813 813 812 811 811 811 810 808 807 807 806 805 803 803 802 801 801 800 799 799 798 797 797 796
758 761 764 766 768 770 773 775 778 780 782 783 785 788 790 793 796 798 800 803 805 807 809 810 811 812 813 814 814 816 818 819 820 820 821 821 821 821 822 822 823 822 822 822 822 822 822 822 821 820 820 819 818 818 817 817 816 816 815 814 812 811 811 810 808 808 808 807 805 804 803 803 801 799 799 798 798 797 796 795 795 794 793 793 792
756 759 762 764 766 769 771 773 775 777 779 781 783 786 788 791 794 796 798 801 803 805 807 808 809 810 810 811 812 814 816 817 817 818 819 820 820 820 820 820 821 821 821 821 821 821 821 820 819 819 818 816 816 816 816 815 815 814 813 812 811 810 809 808 806 805 804 804 802 800 799 798 798 796 795 795 794 793 793 792 791 791 790 789 789
754 757 760 762 764 767 769 771 773 774 776 778 780 784 787 789 792 794 797 799 801 803 805 806 807 808 808 809 810 812 813 815 816 817 818 819 819 818 819 819 819 819 819 819 820 819 819 818 817 816 815 814 814 814 814 813 813 812 811 810 809 808 807 806 805 803 802 801 799 796 794 794 794 793 792 792 791 790 790 789 788 787 787 786 785
752 754 757 759 761 764 766 768 770 771 774 776 778 782 785 787 791 793 795 798 799 801 802 803 804 805 805 807 808 809 811 813 814 815 815 816 817 817 817 817 817 817 817 817 817 817 817 816 815 814 813 813 811 811 811 811 810 810 809 807 807 806 805 804 802 800 799 799 797 794 792 791 791 791 789 789 789 788 787 786 785 784 784 783 782
749 751 753 755 757 760 762 764 766 768 771 773 776 780 783 786 789 792 794 795 797 798 799 800 801 802 803 804 805 807 809 810 812 812 813 814 814 814 815 814 814 814 814 814 814 814 814 814 813 811 810 810 809 808 809 809 808 808 807 805 804 804 803 801 800 798 797 797 795 793 791 789 789 788 786 785 785 785 784 783 782 782 781 780 780
745 747 749 752 754 756 759 761 764 766 768 771 775 778 782 785 788 790 791 792 794 795 796 797 798 799 800 802 803 805 807 808 809 810 810 811 812 812 812 812 811 811 811 810 811 811 812 811 810 809 808 808 807 806 807 807 806 806 805 804 803 801 800 798 797 796 794 793 793 792 789 787 787 786 783 783 783 782 781 781 779 779 778 776 775
741 744 746 748 750 753 756 758 761 764 767 770 773 777 779 782 784 786 788 789 791 792 793 795 796 797 798 800 801 803 805 806 807 807 808 809 809 809 809 809 809 809 808 808 809 810 810 809 808 807 806 806 805 805 805 805 804 804 803 802 800 799 797 796 794 793 791 790 791 790 787 785 785 784 782 782 781 779 778 777 776 775 773 772 771
738 741 743 745 748 750 752 755 758 760 764 767 770 773 776 778 781 782 784 786 788 790 792 794 795 795 796 798 800 801 802 803 804 805 806 807 807 807 807 807 807 807 806 807 808 808 808 807 805 805 804 804 803 803 803 803 802 801 800 799 798 796 795 794 792 790 790 788 788 788 786 784 784 783 780 779 778 776 774 773 772 770 769 767 766
735 738 741 744 747 749 752 755 757 759 761 763 766 769 772 775 777 779 781 783 785 788 789 791 793 793 794 796 798 799 800 801 803 804 805 805 805 805 806 805 805 805 805 806 806 806 806 804 804 803 802 802 802 801 801 800 800 799 798 797 795 794 793 792 791 789 788 787 787 787 785 783 782 781 778 775 773 773 772 770 768 766 765 763 762
734 737 740 743 747 750 752 755 757 759 760 761 764 767 770 773 775 777 779 780 782 785 787 788 790 791 792 794 795 797 798 799 801 802 802 803 803 804 804 804 804 804 804 804 804 804 803 802 802 801 800 800 800 799 799 798 797 797 796 795 794 792 791 791 790 789 788 787 786 786 784 782 780 779 778 774 770 768 767 766 764 762 761 760 758
Wind_Speed
9 8 9 8 6 6 5 2 1 2 1 0 1 2 1 2 2 2 2 3 3 2 3 3 3 2 1 3 5 4 3 2 6 7 5 6 7 4 4 4 3 9 13 13 14 15 16 16 16 16 15 14 14 14 14 14 14 13 13 12 12 11 11 11 10 10 10 9 9 9 9 9 9 8 8 8 8 8 8 7 7 6 6 6 5
8 9 10 9 8 7 4 2 1 1 2 1 2 1 1 1 1 1 1 2 2 2 3 2 3 4 1 1 2 3 1 2 3 5 8 8 8 5 4 4 4 7 11 13 13 14 16 17 17 16 15 14 14 14 14 14 14 14 13 13 13 12 12 11 11 11 10 10 10 10 9 9 9 9 9 9 9 9 8 8 8 7 7 6 6
10 10 10 9 8 7 4 3 2 1 2 2 1 1 0 0 0 1 2 1 2 3 2 1 3 5 2 2 1 1 2 4 5 3 6 10 9 6 5 4 4 5 8 11 12 13 14 16 15 15 15 15 14 13 13 13 13 14 14 13 13 13 13 12 12 12 11 11 11 11 10 10 10 10 10 10 10 10 9 9 9 9 8 7 7
12 11 11 10 8 6 4 3 3 2 3 3 3 2 1 2 2 2 2 1 4 4 2 2 3 4 3 1 1 1 3 4 5 7 5 8 8 6 5 5 5 5 6 9 10 12 13 14 14 15 16 15 15 14 14 14 13 13 13 13 13 13 13 13 13 12 12 12 12 12 12 12 12 11 11 11 11 10 10 11 10 10 9 9 8
11 9 9 10 8 7 5 4 4 3 3 4 5 3 2 3 3 4 2 2 3 2 1 1 1 2 3 1 3 2 3 3 3 9 11 8 6 4 5 5 5 4 5 6 8 10 11 12 13 14 16 16 15 16 15 15 14 14 13 13 13 13 13 13 13 13 13 13 13 13 13 13 13 13 12 12 12 11 11 11 11 11 11 10 9
12 10 9 9 8 7 6 6 5 4 3 4 4 4 3 3 3 3 2 2 1 1 3 4 3 2 4 1 1 3 4 5 5 8 9 9 10 9 7 6 5 4 5 5 6 8 10 11 12 13 15 16 17 16 16 15 15 14 14 14 13 13 13 13 13 14 14 14 14 13 13 13 14 14 14 14 13 13 13 12 12 12 12 11 10
12 11 11 10 9 8 7 6 5 4 4 5 5 4 2 2 2 1 2 1 1 3 3 6 5 4 3 3 3 4 6 7 9 8 7 7 8 8 8 7 7 6 4 4 5 7 8 9 11 13 12 14 15 15 15 16 16 15 15 14 14 14 15 15 14 14 15 15 15 15 15 14 14 14 14 14 14 14 14 14 14 13 13 13 12
12 12 12 12 9 9 8 6 5 4 6 6 4 4 3 2 2 1 1 2 2 2 3 7 5 5 4 2 1 1 4 5 6 6 5 6 5 5 8 7 8 8 5 4 4 5 6 7 9 10 10 11 12 13 14 15 16 17 15 14 15 16 16 16 15 15 15 15 16 16 16 16 16 16 15 15 15 15 15 15 15 14 14 14 13
13 13 13 12 11 10 8 6 6 5 7 7 5 5 4 3 3 3 2 3 3 3 5 5 4 2 3 1 2 4 4 3 3 4 3 3 6 7 7 9 9 8 6 5 5 6 6 6 7 7 8 10 10 11 12 14 15 16 14 14 15 16 16 16 16 17 16 16 16 16 16 17 17 17 17 17 17 16 16 16 16 16 15 14 14
13 14 13 12 12 10 8 7 7 7 8 7 6 6 5 4 3 3 3 4 4 3 3 3 3 1 2 3 4 4 2 2 0 2 1 3 7 9 8 10 9 9 9 9 8 7 7 6 6 6 6 8 9 9 10 11 13 14 13 14 14 15 16 15 15 16 16 16 16 17 17 17 18 19 18 18 18 18 18 17 17 16 15 15 14
13 13 12 12 12 10 8 8 8 9 9 8 7 7 6 5 4 4 4 4 3 3 1 2 2 0 2 2 3 1 2 4 3 4 2 2 6 10 11 11 10 11 12 12 10 7 5 4 5 6 5 5 6 7 8 9 10 11 11 12 13 14 14 14 14 15 15 16 17 17 17 17 18 19 19 19 20 20 20 19 18 18 17 16 16
13 13 12 13 12 10 10 10 10 10 9 8 8 7 7 6 5 5 4 2 2 3 2 1 1 2 2 2 2 1 1 1 4 5 2 4 11 16 15 13 11 12 12 12 11 10 8 5 3 4 4 4 4 5 6 7 8 9 9 10 11 12 13 13 13 14 15 16 17 18 18 17 18 19 19 19 20 21 21 20 20 20 20 20 20
14 13 12 13 13 12 13 13 12 11 9 8 9 8 7 7 6 4 4 3 2 1 2 1 3 2 1 2 2 3 1 1 3 2 0 8 15 16 16 14 12 12 12 12 11 10 9 7 6 4 4 3 3 3 5 5 6 7 7 8 9 10 11 13 13 14 15 16 16 17 17 18 19 19 20 20 20 20 20 20 21 21 22 22 22
14 13 13 13 14 13 14 14 13 11 9 9 11 9 6 6 5 5 4 3 1 1 3 3 3 2 0 2 1 5 5 4 4 5 1 10 13 10 9 9 11 14 13 12 10 9 8 6 6 5 4 4 3 2 1 3 3 3 4 5 6 7 9 10 11 12 14 14 15 16 16 17 18 19 20 20 20 19 19 20 21 22 22 22 22
14 14 13 13 15 15 14 14 12 10 10 12 12 8 7 7 6 5 4 2 2 1 2 3 3 2 1 2 1 4 3 3 4 3 4 14 14 10 8 7 10 13 14 12 10 9 9 6 5 4 4 2 2 2 2 1 1 1 2 2 3 4 5 6 7 8 9 11 12 14 14 15 16 18 18 18 19 18 18 19 20 20 21 21 21
15 14 14 15 16 16 15 14 11 10 13 13 11 9 7 8 7 6 4 3 2 2 2 3 4 3 2 1 0 1 0 2 3 2 9 15 13 10 9 9 10 11 13 12 10 9 10 9 8 6 5 3 2 2 2 1 2 3 4 4 3 3 4 5 6 7 8 9 10 10 11 12 13 14 16 16 17 17 18 18 18 18 19 19 20
15 14 15 16 16 15 14 13 12 14 14 10 10 10 8 8 8 7 5 4 3 3 5 5 3 3 3 3 2 2 2 2 2 1 6 11 12 11 10 9 9 10 12 12 10 9 8 9 10 9 6 5 4 3 2 1 2 3 4 5 4 4 3 4 6 7 8 9 10 10 10 10 10 11 12 13 14 15 16 17 18 18 18 19 19
15 14 15 16 15 13 14 15 16 16 13 10 10 11 10 10 10 8 5 6 6 3 4 7 4 2 4 5 3 2 2 0 1 0 2 5 9 10 10 8 8 10 12 13 11 10 9 9 11 10 6 5 5 4 4 4 2 1 4 5 4 4 4 4 4 5 7 7 8 10 10 10 10 10 10 10 11 12 13 14 16 17 18 18 18
16 15 14 14 15 15 17 19 17 14 13 12 12 12 12 11 11 10 7 7 6 3 4 8 6 2 4 5 4 5 4 2 1 1 1 1 2 6 11 11 8 9 12 14 13 11 10 9 9 7 5 6 5 4 5 6 5 3 3 4 3 5 5 5 4 4 5 6 7 8 8 9 9 10 10 10 10 11 12 12 13 14 15 15 16
18 16 13 14 17 19 20 19 17 14 14 15 14 12 13 12 12 11 9 8 6 5 6 7 6 5 6 6 6 5 5 3 2 2 3 1 3 1 8 10 8 8 11 13 12 10 9 7 6 4 4 7 5 3 5 7 7 5 5 5 4 5 6 5 5 5 5 6 7 7 8 8 9 9 9 9 10 11 12 13 13 14 14 15 15
18 16 14 16 20 21 21 20 19 17 13 14 14 13 14 14 12 12 11 10 8 7 6 6 8 8 7 8 7 6 4 3 3 3 3 2 1 1 3 6 7 7 10 14 12 9 7 4 2 2 4 7 5 3 6 8 8 8 8 7 6 7 6 5 6 6 6 6 7 8 8 9 9 10 10 10 10 10 11 12 13 14 14 15 15
19 17 17 20 22 22 22 21 21 19 14 14 15 14 14 13 11 11 11 12 11 9 7 7 9 8 7 8 9 8 4 2 4 5 3 2 1 1 4 7 4 2 5 12 12 7 4 1 2 2 3 5 6 6 7 9 10 10 10 8 8 8 7 7 7 7 7 7 8 8 9 10 10 10 11 11 11 11 11 12 12 13 13 14 14
21 20 21 23 23 24 24 22 21 18 14 15 17 16 14 13 12 11 12 13 11 9 9 9 9 8 6 8 10 10 6 4 7 8 5 3 2 1 3 4 2 2 3 6 7 5 3 3 4 4 4 5 8 8 9 10 11 11 11 10 10 9 9 10 9 9 10 10 10 10 10 11 11 10 11 11 11 12 12 12 12 13 13 13 14
23 24 26 25 25 26 26 23 21 19 16 16 17 17 15 14 14 13 13 13 10 9 9 9 9 8 8 8 8 8 7 6 8 9 6 5 3 2 1 3 2 2 2 2 2 3 4 5 6 7 7 8 10 10 11 12 13 12 12 12 11 11 11 12 11 11 11 12 13 12 12 12 12 12 12 12 12 12 12 12 13 13 13 13 13
26 27 28 27 26 27 27 24 23 21 19 17 16 16 16 16 15 15 15 13 11 11 10 9 9 9 9 8 6 7 9 8 8 8 7 7 6 3 1 2 2 1 3 3 1 3 6 8 9 10 11 12 12 13 13 13 13 13 14 14 12 13 13 14 13 12 12 13 13 12 12 13 14 15 15 15 14 14 14 14 13 13 13 13 14
29 30 30 29 28 27 26 25 24 22 20 20 18 15 15 17 18 17 16 14 12 13 13 12 11 10 9 9 7 6 7 6 5 7 7 7 7 6 3 2 2 2 2 3 4 5 6 8 10 10 14 16 14 14 15 14 14 15 15 16 16 15 15 15 15 15 14 14 13 12 13 13 14 15 16 17 17 17 16 16 15 15 14 14 14
31 32 30 31 29 27 26 26 26 22 19 21 21 17 15 18 19 17 14 13 12 13 14 13 11 10 11 10 7 6 6 4 4 4 4 3 4 6 5 3 2 3 3 4 6 6 7 9 10 8 10 14 14 13 15 15 15 16 16 17 18 17 17 18 18 18 18 17 15 14 14 15 16 16 17 17 18 19 19 19 18 17 16 15 15
32 32 31 32 30 28 27 27 26 23 20 22 24 21 18 19 19 16 15 14 13 13 14 13 11 11 10 9 7 6 4 3 3 3 3 3 4 4 4 5 4 0 2 3 4 5 6 9 9 9 7 8 12 11 12 13 14 15 16 17 18 18 18 19 20 20 20 19 17 16 17 18 19 19 19 19 19 20 21 21 21 21 19 18 17
32 32 32 33 31 29 29 28 25 24 23 24 24 23 22 21 19 17 18 17 14 15 15 14 13 12 10 9 8 7 5 4 4 4 3 2 3 2 2 3 5 4 1 2 2 3 6 10 8 6 6 4 7 9 11 12 14 15 16 16 17 18 19 20 21 21 21 20 19 18 19 20 21 22 22 23 23 22 22 22 23 24 24 23 21
33 31 33 35 33 31 31 29 26 24 25 25 25 23 23 23 22 20 20 19 16 17 17 16 15 14 11 9 9 8 6 5 4 3 3 4 4 5 4 4 6 6 6 4 2 4 6 9 8 6 7 8 9 10 12 14 16 17 17 18 19 20 20 21 22 22 22 21 20 19 20 21 23 24 25 26 26 25 24 23 23 23 24 25 24
34 33 33 35 34 33 33 31 28 26 25 25 25 24 23 23 23 23 22 21 19 18 18 17 16 15 13 12 11 10 8 7 6 4 3 4 6 7 6 6 7 8 9 6 2 4 6 7 8 9 9 11 11 12 15 16 16 17 18 19 21 22 22 22 23 23 24 23 22 22 22 23 24 25 25 24 24 23 23 22 22 22 23 24 25
35 35 35 35 34 35 35 33 30 29 27 26 25 26 25 23 24 24 23 23 22 19 18 18 17 16 16 15 13 13 11 10 9 8 7 6 7 8 7 7 7 8 9 8 5 7 10 10 11 12 11 12 13 14 15 16 15 16 18 21 23 23 22 23 23 24 25 25 25 24 25 25 24 25 24 24 23 23 23 23 22 23 23 25 26
36 37 37 35 35 36 36 34 33 32 30 28 27 27 27 25 24 24 23 24 24 21 19 18 18 18 17 16 15 14 14 14 12 11 10 10 9 9 7 8 9 10 10 11 10 10 11 12 12 13 13 13 15 15 14 14 15 16 18 20 21 22 24 24 24 24 25 25 25 26 26 26 26 25 25 25 25 25 25 25 25 25 26 26 27
37 38 38 36 36 36 36 35 34 33 32 30 29 29 29 28 26 25 25 24 25 24 22 20 21 20 18 17 16 16 16 16 14 11 11 12 11 10 8 9 12 12 12 13 12 10 10 12 14 16 16 16 17 18 16 16 17 18 18 18 19 21 22 24 24 25 25 25 25 25 25 26 25 25 26 27 27 26 26 26 27 27 27 28 28
37 38 38 38 37 37 37 35 35 35 34 32 31 30 31 31 29 28 27 27 26 26 25 24 23 22 21 19 17 15 15 15 14 12 12 14 13 12 11 10 11 12 12 11 11 11 12 14 16 17 18 18 20 20 19 18 18 18 19 19 19 20 21 22 23 24 25 25 25 24 24 24 25 26 27 28 28 28 28 28 28 28 28 29 28
38 37 37 38 38 38 38 37 36 36 35 34 33 32 32 32 32 31 30 29 28 27 27 26 24 23 23 22 20 17 15 15 15 15 15 16 15 14 13 13 12 13 12 11 12 12 13 15 17 18 19 20 21 22 22 21 20 19 18 19 19 21 22 21 22 24 25 25 24 24 24 24 25 26 27 27 28 28 27 27 27 28 29 30 30
38 38 38 38 38 39 39 39 38 37 37 36 36 35 34 33 33 33 32 31 30 28 26 26 25 24 23 23 22 19 18 18 18 17 17 17 17 16 15 16 16 15 14 13 12 12 14 16 19 20 20 20 23 25 24 23 21 20 20 19 20 22 23 22 22 23 24 23 23 23 23 23 24 25 26 27 27 27 28 28 28 29 30 31 32
38 38 38 39 39 40 40 40 39 39 38 38 38 36 35 34 33 33 33 32 32 30 27 26 25 25 24 23 22 21 21 21 20 18 17 17 17 16 16 16 16 16 15 14 13 14 15 17 19 20 22 22 23 25 26 23 20 20 22 22 22 22 22 22 23 22 22 22 22 21 22 23 24 26 27 28 28 28 28 29 30 30 30 31 31
39 39 39 40 40 40 39 39 39 39 38 38 38 37 36 35 34 34 33 32 32 31 29 27 26 25 25 24 23 23 23 22 21 19 18 18 17 16 16 16 16 16 16 16 15 16 17 17 18 20 22 23 23 25 26 22 19 20 22 23 23 22 22 23 23 22 21 21 21 21 22 24 26 27 28 29 29 29 29 29 30 30 30 30 31
41 41 41 40 39 38 38 38 38 38 38 38 38 38 37 36 35 34 33 32 31 30 29 27 26 25 25 25 25 24 23 23 21 20 19 19 19 18 18 18 18 18 19 19 18 18 18 17 18 19 20 21 23 24 24 21 20 21 20 19 20 21 21 21 20 19 19 20 21 23 24 25 26 27 27 28 28 27 26 26 27 28 29 31 32
41 40 39 39 38 37 37 37 37 37 38 38 39 39 38 36 35 34 33 32 32 31 29 27 25 24 24 25 25 24 23 22 21 20 20 20 21 20 20 19 20 20 21 21 20 20 18 16 17 19 19 20 22 22 22 22 20 19 17 16 16 17 18 19 21 21 21 21 23 23 23 22 24 25 25 26 25 24 23 25 27 30 32 32 32
39 38 36 35 36 36 35 35 36 36 37 38 38 39 39 38 36 34 33 32 32 30 29 28 26 25 25 25 25 24 24 23 22 22 21 22 22 21 20 21 22 22 22 21 22 21 17 16 18 19 17 18 21 22 21 20 18 17 16 16 15 16 18 19 21 24 23 22 22 23 23 24 25 27 26 26 26 25 26 28 30 30 31 30 30
36 35 34 33 33 34 34 34 34 35 36 37 37 38 39 38 36 35 33 33 31 30 28 27 27 27 26 25 24 24 24 23 23 21 21 21 21 21 21 22 23 23 22 22 22 20 19 18 19 19 18 18 21 21 20 19 19 18 17 16 16 17 17 14 14 19 25 26 25 25 28 29 29 28 27 27 27 26 26 26 26 26 26 26 27
33 32 32 32 32 32 33 33 34 35 35 35 36 37 38 38 37 34 33 32 31 29 28 27 27 27 27 26 24 23 23 22 20 19 19 20 20 21 21 21 22 23 22 22 23 23 23 20 19 19 20 20 20 21 21 20 20 19 17 17 17 16 14 13 14 20 27 30 28 27 28 30 28 26 26 26 24 23 23 24 25 26 26 26 27
29 30 30 30 31 31 32 32 33 34 34 34 34 35 37 38 36 34 32 30 29 29 28 27 27 27 27 26 24 23 22 20 18 16 17 19 20 20 20 21 22 23 23 24 25 26 25 23 22 23 24 23 22 23 23 21 19 19 18 18 17 15 15 17 20 25 27 26 26 27 26 28 28 26 26 26 24 24 25 25 25 26 25 24 24
27 29 30 30 30 31 31 32 32 33 33 33 33 33 34 36 36 34 32 30 29 28 28 28 28 27 27 26 24 23 21 20 20 19 19 20 20 20 20 21 23 23 23 23 23 23 23 23 23 24 24 23 23 24 24 22 21 20 18 17 17 17 20 23 24 26 25 23 25 24 22 25 28 25 26 28 26 24 24 23 22 22 22 23 25
29 29 30 29 29 29 30 31 31 30 30 30 30 30 31 33 34 35 33 31 29 27 27 29 29 27 26 24 23 22 20 19 20 21 21 21 21 21 21 22 23 22 20 20 21 21 20 19 21 23 23 22 21 21 21 20 18 18 17 17 19 22 24 24 24 26 25 26 27 21 17 23 28 25 25 26 22 20 21 21 22 24 26 29 31
28 28 29 29 28 28 28 29 29 27 26 27 27 28 29 31 34 36 35 32 28 26 25 26 27 26 25 23 22 20 19 19 20 21 21 21 21 22 22 22 23 21 19 19 19 19 19 20 21 22 20 18 16 16 15 15 15 17 18 20 22 23 22 20 22 25 26 27 27 21 19 22 23 20 21 21 19 22 26 28 29 31 32 32 30
27 27 28 28 28 27 27 27 27 26 25 25 26 27 29 31 34 36 36 33 28 24 21 21 23 23 22 20 19 18 19 21 21 20 20 21 21 21 22 21 20 19 18 19 18 16 16 16 15 13 12 10 10 12 15 17 19 21 21 20 22 22 19 16 16 20 23 26 25 20 18 17 16 17 21 22 22 25 29 30 31 30 29 28 27
27 26 26 26 26 26 26 25 26 25 25 24 25 25 27 30 32 34 35 34 29 25 22 20 20 21 20 18 17 18 20 21 21 21 21 21 21 20 19 18 17 17 17 17 16 15 14 13 12 11 12 13 15 17 18 18 18 18 20 21 22 23 20 17 15 18 20 22 21 17 16 19 21 22 24 25 24 25 26 27 28 29 28 28 28
25 25 24 24 23 24 24 23 23 24 24 23 23 24 25 27 30 33 33 31 28 26 24 21 19 20 20 19 18 19 21 21 21 22 21 20 19 17 15 14 15 16 16 15 14 14 15 15 16 16 17 18 19 17 15 14 14 15 17 19 19 20 20 19 17 14 11 13 16 17 19 22 23 23 24 20 16 18 24 27 27 29 30 30 31
Wind_Direction
197 187 195 199 195 198 202 193 153 167 189 136 149 145 161 250 257 275 302 2 25 53 52 52 30 7 343 41 65 74 65 187 222 224 221 216 201 185 144 125 168 187 190 193 193 196 196 195 193 190 190 190 189 187 184 183 184 187 189 190 191 193 194 195 198 203 206 209 213 216 218 221 223 225 228 229 230 233 233 232 230 228 231 236 243
191 189 197 201 197 201 206 201 179 151 179 174 152 135 22 317 282 239 261 24 38 46 45 45 19 14 302 279 44 60 38 304 294 243 224 217 201 187 152 122 120 167 189 193 194 199 202 203 200 195 193 192 195 194 191 190 189 190 192 193 194 195 199 201 202 206 210 212 215 219 221 224 226 227 230 231 231 235 238 240 240 240 242 246 250
187 187 189 191 193 200 197 188 184 163 195 201 163 100 103 338 279 229 275 300 88 68 39 353 338 359 353 269 262 82 28 351 359 351 220 210 196 181 158 140 124 142 179 191 194 199 203 207 205 201 200 198 199 200 199 200 198 198 197 198 199 200 202 204 205 208 212 214 216 220 222 225 228 230 232 233 234 236 239 242 246 248 251 253 256
178 182 187 193 196 201 202 198 197 205 225 220 220 223 239 291 275 263 305 144 120 90 24 337 325 316 311 354 32 96 47 17 24 53 125 185 193 191 177 156 142 137 167 188 193 197 202 205 205 207 208 205 203 204 204 204 206 207 206 206 207 209 210 209 209 210 211 214 218 222 224 224 228 230 233 237 238 240 241 243 247 252 255 255 255
185 189 195 200 202 207 211 210 221 249 248 224 220 226 257 289 282 274 283 137 120 102 272 287 33 337 300 339 40 44 45 23 38 77 99 128 142 163 184 164 148 149 162 181 191 196 201 202 201 205 211 210 210 212 210 209 209 211 215 215 216 218 219 219 218 216 216 216 218 222 226 227 228 229 231 235 239 242 244 245 247 251 255 256 256
205 206 206 209 216 225 219 211 229 260 238 203 211 240 278 282 288 284 220 151 17 246 242 264 204 97 7 328 124 37 37 53 86 99 92 100 111 116 134 136 132 149 160 173 189 196 202 206 201 201 208 210 213 217 216 216 216 215 219 221 222 224 225 227 226 227 228 226 224 224 227 230 232 232 232 233 236 239 243 246 248 251 254 256 258
208 208 211 217 226 232 227 218 220 230 218 197 208 242 280 277 286 297 181 179 286 236 262 303 259 197 55 67 139 56 51 72 90 98 70 82 105 101 112 125 130 141 153 168 184 196 204 213 210 204 205 209 217 224 220 220 223 221 223 225 226 228 229 231 230 231 232 233 233 231 231 233 235 237 237 237 237 238 241 243 246 249 252 254 257
208 206 210 215 220 226 229 223 202 203 215 205 204 226 234 244 236 190 178 249 264 275 305 329 317 201 171 44 192 99 70 67 76 85 64 82 116 105 105 119 130 138 154 179 184 191 201 218 221 213 210 211 219 228 225 223 226 227 229 231 232 233 235 236 236 234 233 234 236 236 236 237 239 241 241 242 242 242 243 243 245 246 248 251 254
208 207 207 208 213 221 223 218 202 196 206 205 205 213 209 198 203 196 211 269 282 309 294 301 338 166 170 22 177 151 93 73 70 75 49 99 149 149 119 117 124 124 130 152 168 179 186 203 221 225 222 218 217 225 227 223 224 228 232 236 238 241 241 240 241 239 236 235 236 237 238 239 240 242 243 245 246 247 247 247 248 248 249 251 253
209 209 207 204 211 220 219 213 202 194 201 208 212 207 192 176 177 187 216 262 269 286 303 298 322 109 103 71 146 156 152 206 230 122 92 106 154 156 125 113 114 107 108 119 140 168 186 197 210 217 217 216 214 220 228 227 228 232 235 237 239 243 243 241 241 241 240 239 240 241 241 241 240 240 241 244 247 248 249 249 250 251 252 253 254
212 212 207 201 207 218 221 214 206 203 208 214 211 200 184 172 181 202 223 250 242 228 291 7 351 115 76 93 148 152 206 234 239 171 122 61 151 146 125 114 106 101 99 102 112 129 159 186 198 201 198 203 206 215 227 229 234 238 239 239 240 242 243 245 246 246 247 247 248 249 247 245 242 242 241 243 246 249 250 250 251 253 254 255 255
213 213 208 201 201 214 220 218 218 214 217 219 204 184 170 173 198 212 211 214 222 228 248 351 55 156 109 111 170 350 73 210 198 172 113 93 124 121 117 117 111 106 100 96 96 96 100 109 135 170 174 179 191 206 220 226 234 240 241 240 242 247 249 252 254 255 257 257 256 255 254 251 248 247 245 245 247 250 252 254 255 256 257 258 257
214 211 210 203 197 209 216 219 224 219 221 214 184 162 166 185 198 189 179 202 248 245 203 161 88 123 133 112 192 241 297 322 189 197 110 132 127 115 113 114 113 116 111 101 95 91 89 85 87 103 126 134 153 184 203 218 230 235 240 243 247 254 258 259 258 257 258 258 258 257 257 256 253 251 250 249 249 250 253 256 258 259 260 261 261
216 211 213 208 198 205 214 219 222 215 209 187 165 160 170 183 182 176 190 223 287 80 166 171 82 60 185 111 174 232 251 260 246 288 276 148 139 125 119 112 112 121 124 114 100 89 83 85 90 86 93 101 97 110 174 205 211 220 233 241 244 251 260 264 264 261 259 259 260 261 260 260 258 256 255 253 252 252 253 256 257 257 259 261 261
216 213 214 210 204 209 214 221 225 212 193 172 163 167 168 172 183 191 200 217 230 123 130 148 123 107 119 101 178 226 244 259 263 299 142 144 138 129 123 110 115 127 134 130 118 100 87 94 109 92 84 94 98 75 55 132 143 29 340 291 262 253 259 269 274 272 269 269 270 268 267 267 264 263 262 258 257 256 256 256 256 256 258 259 259
211 210 211 210 211 213 218 225 225 203 185 170 163 167 171 179 189 197 187 166 197 208 179 160 144 134 119 130 193 116 158 287 317 54 128 137 135 134 131 119 121 137 141 134 125 109 95 101 117 115 103 104 128 108 72 58 10 23 18 354 332 297 275 270 277 279 282 285 286 285 281 278 276 273 271 267 263 262 261 260 259 260 260 259 259
209 209 211 214 216 218 222 218 197 179 176 169 167 174 182 185 185 191 188 173 179 217 221 196 151 127 142 143 73 62 220 267 335 51 123 131 137 140 141 134 131 140 145 140 131 118 108 110 120 125 120 119 146 160 172 238 331 3 5 358 360 351 324 295 290 288 290 292 292 294 293 291 288 285 281 277 274 270 266 265 262 261 261 261 261
213 213 213 218 221 215 205 191 175 170 170 164 170 183 195 196 191 187 178 182 187 201 211 188 161 111 138 132 103 137 194 354 54 45 81 132 149 155 162 163 146 138 146 151 143 130 128 129 131 134 133 140 159 184 220 243 266 321 343 340 348 357 349 331 316 307 308 306 301 300 299 299 296 292 288 283 281 277 274 272 268 265 264 264 263
216 215 214 216 206 189 179 177 174 171 171 175 180 188 193 188 184 183 176 182 182 147 157 167 161 147 141 129 123 145 143 99 132 122 65 212 163 160 177 185 170 149 154 159 157 151 146 143 145 147 153 158 165 198 231 251 252 243 310 321 332 346 337 324 317 313 315 315 313 312 308 309 306 300 296 290 285 280 279 278 275 274 272 270 269
213 209 206 199 185 172 173 177 175 171 176 186 189 190 188 177 173 181 185 191 185 149 146 156 157 160 160 152 151 158 139 129 163 136 133 205 348 135 175 181 177 169 168 167 167 168 158 145 143 145 173 178 176 202 226 242 242 246 286 301 314 336 330 321 314 306 305 306 306 309 307 308 309 307 304 298 292 286 282 280 278 277 276 274 274
202 197 188 183 178 174 179 183 180 177 178 181 183 186 185 182 182 187 193 198 195 174 154 147 151 159 171 175 175 176 157 143 172 158 136 140 308 300 111 122 150 168 173 173 170 165 155 145 141 129 172 190 198 218 234 235 231 245 270 283 302 318 318 318 321 312 304 300 296 297 299 300 302 301 302 300 296 293 289 286 285 283 281 279 277
187 187 181 180 182 182 184 188 186 183 179 173 178 181 179 181 181 180 183 186 189 186 168 150 157 166 179 185 183 179 177 176 172 170 165 147 197 249 71 87 124 145 156 168 168 164 170 230 269 218 189 204 213 220 231 231 234 246 256 268 289 302 300 301 313 312 306 302 293 289 290 290 293 294 295 296 295 295 293 292 291 290 289 287 283
180 185 184 183 187 186 184 186 186 184 181 180 185 186 181 180 174 170 175 178 182 185 174 161 164 172 176 181 183 181 183 190 179 176 181 161 147 168 99 70 27 27 101 154 170 185 222 268 269 235 223 229 230 230 230 231 239 244 249 266 281 283 283 287 297 304 305 305 296 287 285 284 286 286 286 289 291 292 293 293 293 293 293 292 290
182 186 187 189 191 189 184 185 186 185 184 186 190 192 189 184 180 177 177 178 180 179 176 174 176 180 182 185 190 191 188 189 182 175 176 178 172 181 133 70 33 26 54 98 174 217 244 266 267 252 246 245 242 237 231 232 242 247 255 270 278 274 268 269 278 289 297 302 296 286 284 285 284 284 281 279 281 283 286 288 290 291 292 294 294
186 187 188 190 192 190 186 186 188 187 184 182 182 188 191 189 186 183 182 183 185 185 186 187 189 191 191 197 216 220 212 210 197 181 176 181 183 200 200 104 91 17 353 354 334 278 278 285 282 263 244 238 239 238 235 239 248 257 269 278 283 278 266 261 268 278 289 296 289 278 280 286 286 285 281 278 276 275 276 278 281 285 288 290 292
190 190 190 190 191 191 187 187 188 186 185 184 183 187 192 190 188 188 191 194 193 196 196 192 195 202 206 211 215 206 201 198 190 181 177 186 198 205 192 89 49 15 344 327 328 312 295 299 296 271 243 235 235 232 233 244 252 257 268 275 279 277 269 268 272 279 287 291 284 272 275 283 285 286 283 279 276 274 274 273 273 277 281 285 287
192 192 192 191 192 191 189 190 189 186 184 184 185 188 185 182 186 190 190 191 191 196 199 196 200 210 215 218 211 192 182 160 150 154 142 149 189 188 164 118 42 352 338 316 315 302 294 309 314 305 266 243 235 231 233 242 249 255 265 271 273 271 268 273 278 282 286 289 285 277 276 278 280 284 283 280 277 275 274 273 271 272 273 277 281
195 195 193 192 192 189 190 190 189 189 187 184 186 190 185 179 183 187 186 189 193 197 201 203 205 211 212 214 223 228 221 208 201 179 135 115 131 153 155 144 147 11 325 309 310 292 298 320 331 343 329 256 238 241 246 251 256 264 273 275 276 274 273 276 279 281 284 286 285 282 280 280 279 280 281 280 279 277 275 274 272 270 270 271 274
196 196 194 193 191 188 190 191 190 192 191 188 190 193 193 188 185 186 187 193 199 200 204 207 209 215 214 212 229 244 247 257 252 224 202 182 158 174 191 162 162 166 186 273 293 274 297 317 323 340 348 301 265 267 273 281 285 285 286 286 286 285 284 282 279 279 279 280 281 281 280 280 280 281 281 280 280 280 279 277 274 272 271 270 270
196 195 194 193 192 190 191 193 194 196 194 191 192 195 198 197 193 191 190 193 201 202 203 206 212 217 217 218 228 233 236 243 241 227 212 202 205 218 219 206 205 201 193 200 252 270 290 311 315 314 321 316 305 296 293 297 299 295 293 295 295 294 292 289 286 283 282 281 282 281 279 279 279 280 281 282 282 282 281 279 277 275 274 272 271
198 196 193 192 193 193 194 195 196 197 195 193 194 196 199 200 198 197 195 195 200 204 205 209 214 215 216 223 223 218 221 218 208 210 213 205 206 205 203 214 222 222 215 204 209 263 276 297 300 296 300 302 301 297 295 297 297 292 288 290 293 295 294 291 291 292 291 290 289 287 285 282 281 280 280 280 279 278 277 278 279 279 277 277 275
200 197 195 194 195 195 195 196 196 196 196 195 196 196 199 201 201 201 200 200 202 206 208 211 214 214 218 225 223 218 219 220 220 219 218 217 209 201 207 222 221 221 224 216 213 249 266 280 286 286 288 288 285 286 290 292 294 291 288 285 283 285 286 285 287 290 292 293 293 291 289 286 284 283 281 279 277 275 274 275 278 279 278 278 278
201 199 197 197 197 196 195 195 195 196 197 197 197 197 198 200 203 203 203 203 205 208 210 211 211 213 219 223 224 220 219 223 227 223 220 223 221 218 224 228 222 219 222 224 228 249 268 275 279 282 284 282 282 285 286 284 283 286 288 286 281 278 278 278 279 284 288 290 291 292 290 288 287 286 283 281 279 277 275 274 275 276 278 279 279
201 200 199 198 197 195 194 196 197 197 198 199 198 198 198 199 202 204 205 206 207 208 211 212 211 212 218 224 225 220 217 218 216 211 215 218 217 219 222 225 229 228 222 224 228 239 260 270 274 280 283 283 284 288 288 285 284 285 284 282 279 278 277 275 277 281 284 286 287 288 288 286 285 285 283 282 280 278 278 276 275 275 276 278 279
202 201 200 199 198 197 197 197 199 199 199 200 200 200 200 200 202 204 205 208 209 209 213 217 215 214 217 222 224 219 213 212 211 210 213 215 216 217 220 223 223 217 213 218 230 242 256 267 273 278 283 285 286 289 292 292 293 293 290 286 280 278 279 278 278 282 284 284 284 284 284 282 281 281 281 280 280 280 280 279 278 277 277 277 276
204 203 203 202 201 200 200 200 200 200 199 200 200 202 202 202 203 205 206 208 210 212 216 220 220 218 218 222 226 224 218 214 213 215 215 216 218 217 216 218 216 215 220 228 242 253 258 266 274 278 282 286 288 290 294 296 297 297 298 297 290 282 280 279 279 282 284 283 282 282 280 279 280 281 281 280 280 279 279 278 278 279 280 280 280
205 205 204 204 203 202 202 202 202 202 201 200 200 201 204 205 206 208 209 209 211 214 217 220 221 220 221 224 226 224 221 218 215 216 216 214 215 217 218 221 223 225 229 230 237 247 252 260 271 279 283 287 289 291 294 295 295 297 299 298 292 285 281 280 281 284 284 280 279 279 278 278 280 281 282 281 281 280 278 277 277 279 282 283 283
206 206 205 205 204 204 204 204 204 204 203 202 201 201 203 206 208 210 212 213 213 215 217 218 218 219 221 224 226 224 222 221 217 215 216 214 215 221 223 224 226 225 223 224 231 240 247 255 266 276 284 288 288 291 296 294 290 292 296 295 292 285 277 277 283 289 290 283 279 279 279 280 283 284 282 280 279 279 280 279 279 280 283 284 284
206 207 207 206 206 206 206 205 205 205 203 202 201 200 202 205 207 209 212 214 216 218 220 220 220 222 225 228 229 227 225 225 224 221 220 219 219 221 222 226 227 223 224 232 238 241 246 252 261 269 279 287 287 288 293 294 287 287 288 286 287 287 283 281 285 292 294 289 284 284 284 286 286 285 283 281 279 280 281 281 280 281 282 284 284
208 209 208 208 207 207 206 206 206 205 203 202 201 200 202 204 206 209 211 213 215 217 220 223 224 225 227 228 229 227 227 227 225 222 222 219 216 218 222 226 226 225 234 243 245 247 248 250 259 267 273 281 283 283 286 287 284 285 286 283 283 288 292 290 290 294 295 292 291 292 293 294 291 288 286 284 284 286 285 283 281 281 282 283 282
210 211 210 209 207 206 206 206 206 205 204 203 202 201 201 202 204 207 209 212 214 215 217 220 222 223 224 225 227 227 227 226 223 224 227 224 221 223 224 224 227 233 242 247 248 250 251 253 263 271 274 276 278 280 282 282 282 285 292 293 288 289 294 295 295 296 297 298 299 298 298 297 293 291 291 289 289 290 288 285 284 283 283 283 283
211 211 211 210 208 207 206 205 205 205 205 205 204 203 202 202 203 205 207 210 212 214 217 219 222 225 225 227 230 230 228 228 229 230 231 230 230 231 231 232 237 240 243 247 250 253 258 263 269 272 272 271 275 279 279 280 285 290 294 293 291 295 299 300 298 299 302 305 303 300 298 296 293 291 291 291 291 290 288 286 286 286 286 285 285
211 211 210 210 209 208 207 205 205 205 206 207 206 205 204 203 204 205 206 209 211 214 218 220 223 226 226 227 229 228 226 228 230 232 235 237 239 241 241 243 245 247 248 251 256 263 268 268 269 270 265 265 275 280 279 282 289 290 288 288 292 297 299 298 297 300 305 307 302 297 296 296 294 291 291 293 294 293 292 291 291 291 289 288 288
208 209 208 208 208 208 207 206 205 206 207 208 207 206 205 205 205 206 207 209 212 214 217 220 224 225 225 223 223 224 224 224 227 231 236 242 247 250 251 252 253 256 258 261 266 272 273 270 269 269 267 268 276 280 282 287 289 286 284 287 291 290 287 286 285 292 303 307 302 296 296 298 299 295 293 298 300 301 300 298 296 294 292 293 295
206 205 206 207 207 206 205 205 206 207 208 208 208 207 206 206 206 206 208 210 213 216 217 219 223 225 223 220 219 221 222 221 225 233 241 247 252 255 257 259 261 264 267 270 273 274 273 272 270 270 274 276 278 283 287 287 283 282 284 285 284 278 277 283 285 289 300 305 297 291 292 297 301 296 293 298 302 300 298 298 296 295 295 297 298
204 203 204 206 206 205 204 205 205 206 207 207 207 207 205 205 206 208 209 210 212 216 218 220 223 224 223 221 220 221 222 223 228 237 244 250 254 255 256 260 264 269 273 277 279 278 277 275 272 274 281 284 282 286 290 286 281 282 282 280 280 282 285 288 289 291 296 298 292 286 284 293 299 295 290 295 298 295 296 297 296 297 298 299 300
205 203 203 203 203 202 203 204 204 204 204 206 207 206 206 206 208 211 212 211 212 217 221 222 223 224 225 224 221 218 221 226 231 238 244 249 252 254 258 263 267 271 276 281 283 282 281 281 281 282 285 286 285 287 288 286 283 281 279 278 284 290 290 289 289 291 295 299 296 284 273 287 296 292 288 295 299 299 299 299 300 301 301 300 300
202 200 200 200 199 198 199 201 200 199 200 203 205 206 208 209 210 212 213 212 211 216 219 220 221 224 225 222 217 215 221 231 237 240 243 247 250 255 262 267 270 274 278 279 278 279 281 284 285 285 284 285 287 287 288 289 287 287 286 285 288 290 285 282 285 288 292 299 300 290 277 286 297 298 298 305 310 307 304 303 302 303 301 300 300
192 194 195 196 197 196 195 194 193 192 193 198 202 205 207 209 209 211 213 212 210 212 214 215 217 218 217 216 216 219 225 233 237 239 240 244 249 257 265 268 271 274 276 275 273 274 278 280 279 280 282 287 293 294 296 295 293 295 293 287 290 290 282 276 281 284 289 296 300 297 293 298 310 316 314 314 314 309 306 305 304 304 304 305 305
188 190 192 193 195 196 195 193 192 191 191 195 199 202 206 208 207 209 212 213 211 210 211 213 213 211 211 215 222 226 228 230 235 239 242 247 252 259 264 266 267 268 268 269 269 266 265 267 270 274 279 289 297 300 299 295 292 292 288 287 292 290 279 274 278 285 292 297 299 304 311 315 320 322 320 318 313 307 305 306 308 309 309 309 307
187 188 189 189 189 193 196 196 197 197 195 195 197 200 203 205 206 210 212 211 209 210 212 213 214 216 221 226 228 230 232 235 239 243 246 249 252 256 258 259 258 259 261 264 264 265 268 273 280 287 292 298 301 301 300 300 300 297 293 296 300 293 281 279 286 294 299 299 304 314 316 314 315 317 317 315 308 304 307 307 307 308 307 306 304